Stündliche Wetter Leipzig

Heute, 1 August, Sonntag

Zeit Temperatur Niederschläge Wind Luftdruck Luftfeuchtigkeit
00:00 +16°C° 0 mm 2 m/S 746 mmHg 75%
01:00 +16°C° 0 mm 2 m/S 746 mmHg 77%
02:00 +15°C° 0 mm 2 m/S 746 mmHg 78%
03:00 +15°C° 0 mm 2 m/S 746 mmHg 79%
04:00 +15°C° 0 mm 1 m/S 746 mmHg 81%
05:00 +16°C° 0 mm 1 m/S 746 mmHg 79%
06:00 +18°C° 0 mm 1 m/S 746 mmHg 77%
07:00 +18°C° 0 mm 1 m/S 746 mmHg 75%
08:00 +19°C° 0 mm 1 m/S 746 mmHg 71%
09:00 +21°C° 0 mm 1 m/S 746 mmHg 66%
10:00 +22°C° 0 mm 1 m/S 746 mmHg 61%
11:00 +22°C° 0.1 mm 1 m/S 746 mmHg 59%
12:00 +23°C° 0.1 mm 2 m/S 746 mmHg 56%
13:00 +23°C° 0.1 mm 2 m/S 746 mmHg 54%
14:00 +24°C° 0.1 mm 2 m/S 746 mmHg 53%
15:00 +24°C° 0.1 mm 2 m/S 746 mmHg 53%
16:00 +24°C° 0.1 mm 2 m/S 746 mmHg 52%
17:00 +23°C° 0.1 mm 2 m/S 746 mmHg 57%
18:00 +21°C° 0.1 mm 2 m/S 746 mmHg 61%
19:00 +20°C° 0.1 mm 2 m/S 745 mmHg 65%
20:00 +19°C° 0.1 mm 2 m/S 746 mmHg 70%
21:00 +18°C° 0.1 mm 2 m/S 746 mmHg 75%
22:00 +17°C° 0.1 mm 2 m/S 746 mmHg 80%
23:00 +16°C° 0 mm 2 m/S 746 mmHg 82%

Morgen, 2 August, Montag

Zeit Temperatur Niederschläge Wind Luftdruck Luftfeuchtigkeit
00:00 +16°C° 0 mm 2 m/S 746 mmHg 84%
01:00 +14°C° 0 mm 3 m/S 747 mmHg 86%
02:00 +14°C° 0 mm 3 m/S 747 mmHg 88%
03:00 +13°C° 0 mm 3 m/S 747 mmHg 89%
04:00 +13°C° 0 mm 3 m/S 747 mmHg 91%
05:00 +14°C° 0 mm 3 m/S 748 mmHg 88%
06:00 +14°C° 0 mm 3 m/S 748 mmHg 85%
07:00 +16°C° 0 mm 2 m/S 749 mmHg 83%
08:00 +17°C° 0.1 mm 3 m/S 749 mmHg 80%
09:00 +17°C° 0.1 mm 3 m/S 749 mmHg 77%
10:00 +18°C° 0.1 mm 3 m/S 749 mmHg 74%
11:00 +18°C° 0.2 mm 3 m/S 749 mmHg 71%
12:00 +19°C° 0.2 mm 4 m/S 749 mmHg 68%
13:00 +19°C° 0.2 mm 4 m/S 749 mmHg 65%
14:00 +20°C° 0.1 mm 4 m/S 749 mmHg 62%
15:00 +20°C° 0.1 mm 4 m/S 749 mmHg 59%
16:00 +21°C° 0.1 mm 3 m/S 749 mmHg 56%
17:00 +20°C° 0.1 mm 3 m/S 749 mmHg 59%
18:00 +19°C° 0.1 mm 2 m/S 749 mmHg 62%
19:00 +20°C° 0.1 mm 1 m/S 749 mmHg 65%
20:00 +19°C° 0 mm 1 m/S 750 mmHg 69%
21:00 +16°C° 0 mm 1 m/S 750 mmHg 72%
22:00 +15°C° 0 mm 2 m/S 750 mmHg 76%
23:00 +15°C° 0 mm 2 m/S 750 mmHg 78%

übermorgen, 3 August, Dienstag

Zeit Temperatur Niederschläge Wind Luftdruck Luftfeuchtigkeit
00:00 +15°C° 0 mm 2 m/S 750 mmHg 80%
01:00 +15°C° 0 mm 2 m/S 750 mmHg 82%
02:00 +14°C° 0 mm 2 m/S 750 mmHg 85%
03:00 +14°C° 0 mm 2 m/S 750 mmHg 87%
04:00 +13°C° 0 mm 2 m/S 750 mmHg 90%
05:00 +14°C° 0 mm 2 m/S 750 mmHg 85%
06:00 +16°C° 0 mm 2 m/S 750 mmHg 81%
07:00 +17°C° 0 mm 2 m/S 750 mmHg 76%
08:00 +18°C° 0 mm 2 m/S 750 mmHg 72%
09:00 +20°C° 0 mm 3 m/S 750 mmHg 67%
10:00 +21°C° 0 mm 3 m/S 749 mmHg 62%
11:00 +22°C° 0.3 mm 3 m/S 749 mmHg 59%
12:00 +24°C° 0.3 mm 3 m/S 749 mmHg 56%
13:00 +24°C° 0.3 mm 3 m/S 748 mmHg 52%
14:00 +24°C° 0.1 mm 3 m/S 748 mmHg 53%
15:00 +24°C° 0.1 mm 3 m/S 748 mmHg 53%
16:00 +24°C° 0.1 mm 3 m/S 748 mmHg 54%
17:00 +22°C° 0.2 mm 3 m/S 748 mmHg 59%
18:00 +21°C° 0.2 mm 3 m/S 748 mmHg 65%
19:00 +20°C° 0.2 mm 3 m/S 748 mmHg 71%
20:00 +19°C° 0.2 mm 2 m/S 748 mmHg 76%
21:00 +18°C° 0.2 mm 2 m/S 749 mmHg 80%
22:00 +16°C° 0.2 mm 2 m/S 749 mmHg 85%
23:00 +16°C° 0 mm 2 m/S 749 mmHg 87%

4 August, Mittwoch

Zeit Temperatur Niederschläge Wind Luftdruck Luftfeuchtigkeit
00:00 +15°C° 0 mm 2 m/S 749 mmHg 89%
01:00 +14°C° 0 mm 3 m/S 749 mmHg 91%
02:00 +14°C° 0 mm 3 m/S 749 mmHg 91%
03:00 +13°C° 0 mm 3 m/S 749 mmHg 92%
04:00 +13°C° 0 mm 3 m/S 748 mmHg 92%
05:00 +14°C° 0 mm 3 m/S 749 mmHg 89%
06:00 +16°C° 0 mm 3 m/S 749 mmHg 86%
07:00 +17°C° 0 mm 3 m/S 749 mmHg 83%
08:00 +18°C° 0 mm 4 m/S 749 mmHg 77%
09:00 +19°C° 0 mm 4 m/S 749 mmHg 72%
10:00 +20°C° 0 mm 5 m/S 749 mmHg 66%
11:00 +19°C° 0 mm 5 m/S 749 mmHg 68%
12:00 +17°C° 0 mm 5 m/S 749 mmHg 70%
13:00 +17°C° 0 mm 5 m/S 750 mmHg 71%
14:00 +18°C° 0 mm 4 m/S 749 mmHg 72%
15:00 +17°C° 0 mm 4 m/S 749 mmHg 72%
16:00 +17°C° 0 mm 3 m/S 749 mmHg 73%
17:00 +17°C° 0 mm 3 m/S 749 mmHg 73%
18:00 +17°C° 0 mm 3 m/S 749 mmHg 73%
19:00 +17°C° 0 mm 3 m/S 749 mmHg 73%
20:00 +16°C° 0 mm 3 m/S 749 mmHg 77%
21:00 +16°C° 0 mm 3 m/S 749 mmHg 81%
22:00 +14°C° 0 mm 3 m/S 750 mmHg 85%
23:00 +13°C° 0 mm 3 m/S 749 mmHg 87%

5 August, Donnerstag

Zeit Temperatur Niederschläge Wind Luftdruck Luftfeuchtigkeit
00:00 +13°C° 0 mm 3 m/S 749 mmHg 89%
01:00 +12°C° 0 mm 3 m/S 749 mmHg 92%
02:00 +12°C° 0 mm 3 m/S 749 mmHg 92%
03:00 +12°C° 0 mm 3 m/S 749 mmHg 93%
04:00 +11°C° 0 mm 3 m/S 749 mmHg 94%
05:00 +12°C° 0 mm 3 m/S 749 mmHg 89%
06:00 +13°C° 0 mm 3 m/S 748 mmHg 85%
07:00 +14°C° 0 mm 3 m/S 748 mmHg 80%
08:00 +15°C° 0 mm 4 m/S 748 mmHg 76%
09:00 +17°C° 0 mm 4 m/S 748 mmHg 72%
10:00 +18°C° 0 mm 4 m/S 748 mmHg 67%
11:00 +20°C° 0.1 mm 4 m/S 748 mmHg 61%
12:00 +21°C° 0.1 mm 4 m/S 747 mmHg 55%
13:00 +22°C° 0.1 mm 4 m/S 747 mmHg 48%
14:00 +22°C° 0 mm 4 m/S 747 mmHg 50%
15:00 +22°C° 0 mm 3 m/S 746 mmHg 51%
16:00 +21°C° 0 mm 3 m/S 746 mmHg 52%
17:00 +21°C° 0 mm 2 m/S 746 mmHg 56%
18:00 +20°C° 0 mm 2 m/S 746 mmHg 60%
19:00 +19°C° 0 mm 2 m/S 746 mmHg 64%
20:00 +19°C° 0 mm 1 m/S 746 mmHg 68%
21:00 +18°C° 0 mm 1 m/S 746 mmHg 73%
22:00 +16°C° 0 mm 1 m/S 746 mmHg 77%
23:00 +15°C° 0 mm 2 m/S 746 mmHg 79%

6 August, Freitag

Zeit Temperatur Niederschläge Wind Luftdruck Luftfeuchtigkeit
00:00 +15°C° 0 mm 2 m/S 746 mmHg 82%
01:00 +15°C° 0 mm 2 m/S 746 mmHg 84%
02:00 +13°C° 0 mm 3 m/S 746 mmHg 87%
03:00 +13°C° 0 mm 3 m/S 746 mmHg 90%
04:00 +13°C° 0 mm 3 m/S 745 mmHg 92%
05:00 +14°C° 0 mm 3 m/S 745 mmHg 90%
06:00 +15°C° 0 mm 4 m/S 745 mmHg 87%
07:00 +15°C° 0 mm 4 m/S 745 mmHg 84%
08:00 +17°C° 0.2 mm 4 m/S 745 mmHg 81%
09:00 +17°C° 0.2 mm 5 m/S 745 mmHg 78%
10:00 +19°C° 0.2 mm 5 m/S 745 mmHg 75%
11:00 +20°C° 0.3 mm 5 m/S 745 mmHg 71%
12:00 +21°C° 0.3 mm 5 m/S 745 mmHg 66%
13:00 +22°C° 0.3 mm 6 m/S 745 mmHg 62%
14:00 +22°C° 0.1 mm 5 m/S 744 mmHg 59%
15:00 +23°C° 0.1 mm 5 m/S 744 mmHg 55%
16:00 +23°C° 0.1 mm 5 m/S 744 mmHg 52%
17:00 +22°C° 0 mm 4 m/S 744 mmHg 55%
18:00 +21°C° 0 mm 3 m/S 744 mmHg 59%
19:00 +20°C° 0 mm 2 m/S 744 mmHg 62%
20:00 +19°C° 0 mm 3 m/S 744 mmHg 66%
21:00 +18°C° 0 mm 3 m/S 745 mmHg 70%
22:00 +17°C° 0 mm 3 m/S 745 mmHg 75%
23:00 +16°C° 0 mm 3 m/S 745 mmHg 77%
Mehr zeigen

Wir brauchen deine Erlaubnis

Meteoprog und unser Service Anbieter werden persönliche Daten aufbewahren, so wie Cookies, Geräte Bezeichnung oder ähnliche Technologien von deinem Gerät und Prozess, so wie Persönliche Daten Inhalte und Werbungen, genauso wie social Media und den Verkehr zu analysieren.

  • Aufbewahrung und/oder Zugang zu deiner Geräte Informationen.

    Cookies, Geräte Bezeichnung oder andere Informationen, können aufbewahrt oder Zugang zu deinem Gerät erhalten, für den Grund, der oben angegeben wird.

  • Personalisierte Werbung und Inhalte, Messungen, Einblick in das Publikum und Produkt Entwicklung.

    Werbungen und Inhalte können personalisiert werden, basierend auf ein Profil. Mehr Daten können besser personalisierte Werbungen und Inhalte hinzufügen. Werbung und Inhalte können gezeigt und gemessen werden. Einblicke über das Publikum, welche die Werbung gesehen haben und den Inhalt, können abgeleitet werden. So wie Daten können genutzt werden, um es zu verbessern oder die Benutzer Erfahrung zu verbessern das System und die Software.

Wenn du “Ich stimme zu” klickst, erlaubst du uns, die Cookies zu benutzen die Geräte Bezeichnung, den Web oder ähnliche Technologien zu benutzen. Deine Settings, können in deinem Gerät bei deinem Browser geändert werden.

Für den bestimmten Zweck, berechtigten Interessen beruhen darauf, mehr als auf den Inhalt. Du kannst mehr darüber in unseren Privaten und Cookie Politik lesen.